Find Starlink 34362

NORAD ID: 64292 Int'l Des: 2025-123 Owner: SPXS Country: US Constellation: starlink operational
LEOCIRCULAR

現在のビュー

3D地球を読み込み中...

About Starlink 34362

Starlink 34362 (NORAD 64292) is a starlink constellation satellite (v2 mini) launched Jun 8, 2025 by SPXS of US. It operates in LEO, CIRCULAR orbit with a mass of 575.00 kg.

次回通過

Passes for default location (London). Set your location on the main map for personalized predictions.

高度履歴

Loading altitude history...

軌道要素

1 64292U 25123B 26263.69506511 .00014863 00000-0 52039-3 0 9992
2 64292 70.0002 60.5844 0003673 273.1433 86.9322 15.29582177 72100
Epoch: Sep 20, 2026 • Age: 11 hours

現在のステータス

高度 500.0 km
遠地点 / 近地点 N/A
速度 7.61 km/s
衛星直下点 -70.00°S, 85.75°W
打ち上げ日 Jun 8, 2025
運用期間 1.2 years
タイプ internet

技術仕様

分類 Payload
質量 575.00 kg
乾燥質量 530.00 kg
長さ 0.30 m
スパン 29.00 m
形状 ? Box + pan
製造者 SPXS
バスタイプ Starlink V2MO
フェーズステータス In Orbit
所有者/国 SPXS/US

Most Searched